Time,TemperatureF,DewpointF,PressureIn,WindDirection,WindDirectionDegrees,WindSpeedMPH,WindSpeedGustMPH,Humidity,HourlyPrecipIn,Conditions,Clouds,dailyrainin,SoftwareType,DateUTC
2013-10-05 00:01:00,78.3,75.5,29.98,East,94,0.0,1.0,91,0.00,,---,0.00,VWS V14.01,2013-10-05 05:01:00,
2013-10-05 00:06:00,78.3,75.5,29.98,East,94,0.0,1.0,91,0.00,,---,0.00,VWS V14.01,2013-10-05 05:06:00,
2013-10-05 00:11:00,78.3,75.5,29.98,East,94,0.0,1.0,91,0.00,,---,0.00,VWS V14.01,2013-10-05 05:11:00,
2013-10-05 00:16:00,78.2,75.4,29.98,East,94,0.0,2.0,91,0.00,,---,0.00,VWS V14.01,2013-10-05 05:16:00,
2013-10-05 00:21:00,78.2,75.4,29.98,East,92,0.0,2.0,91,0.00,,---,0.00,VWS V14.01,2013-10-05 05:21:00,
2013-10-05 00:26:00,78.2,75.7,29.98,East,93,0.0,0.0,92,0.00,,---,0.00,VWS V14.01,2013-10-05 05:26:00,
2013-10-05 00:31:00,78.2,75.7,29.97,East,94,0.0,1.0,92,0.00,,---,0.00,VWS V14.01,2013-10-05 05:31:00,
2013-10-05 00:36:00,78.1,75.6,29.97,East,93,0.0,1.0,92,0.00,,---,0.00,VWS V14.01,2013-10-05 05:36:00,
2013-10-05 00:41:00,78.1,75.6,29.97,East,94,0.0,1.0,92,0.00,,---,0.00,VWS V14.01,2013-10-05 05:41:00,
2013-10-05 00:46:00,78.1,75.6,29.97,East,94,0.0,1.0,92,0.00,,---,0.00,VWS V14.01,2013-10-05 05:46:00,
2013-10-05 00:51:00,78.0,75.5,29.97,East,93,0.0,1.0,92,0.00,,---,0.00,VWS V14.01,2013-10-05 05:51:00,
2013-10-05 00:56:00,78.0,75.5,29.97,East,92,0.0,0.0,92,0.00,,---,0.00,VWS V14.01,2013-10-05 05:56:00,
2013-10-05 01:01:00,78.0,75.5,29.97,East,94,0.0,2.0,92,0.00,,---,0.00,VWS V14.01,2013-10-05 06:01:00,
2013-10-05 01:06:00,78.0,75.5,29.96,East,93,0.0,2.0,92,0.00,,---,0.00,VWS V14.01,2013-10-05 06:06:00,
2013-10-05 01:11:00,78.0,75.8,29.96,East,92,0.0,2.0,93,0.00,,---,0.00,VWS V14.01,2013-10-05 06:11:00,
2013-10-05 01:16:00,78.0,75.8,29.96,East,85,0.0,2.0,93,0.00,,---,0.00,VWS V14.01,2013-10-05 06:16:00,
2013-10-05 01:21:00,78.0,75.8,29.96,East,85,3.0,3.0,93,0.00,,---,0.00,VWS V14.01,2013-10-05 06:21:00,
2013-10-05 01:26:00,78.0,75.8,29.96,East,82,0.0,0.0,93,0.00,,---,0.00,VWS V14.01,2013-10-05 06:26:00,
2013-10-05 01:31:00,78.0,75.8,29.96,ENE,75,0.0,4.0,93,0.00,,---,0.00,VWS V14.01,2013-10-05 06:31:00,
2013-10-05 01:36:00,78.0,75.8,29.96,ENE,75,0.0,4.0,93,0.00,,---,0.00,VWS V14.01,2013-10-05 06:36:00,
2013-10-05 01:41:00,78.0,75.8,29.96,ENE,75,0.0,4.0,93,0.00,,---,0.00,VWS V14.01,2013-10-05 06:41:00,
2013-10-05 01:46:00,78.0,75.8,29.95,ENE,76,0.0,4.0,93,0.00,,---,0.00,VWS V14.01,2013-10-05 06:46:00,
2013-10-05 01:51:00,77.9,75.7,29.95,ENE,76,0.0,4.0,93,0.00,,---,0.00,VWS V14.01,2013-10-05 06:51:00,
2013-10-05 01:56:00,77.9,75.7,29.95,ENE,76,0.0,0.0,93,0.00,,---,0.00,VWS V14.01,2013-10-05 06:56:00,
2013-10-05 02:01:00,77.8,75.6,29.95,ENE,75,0.0,0.0,93,0.00,,---,0.00,VWS V14.01,2013-10-05 07:01:00,
2013-10-05 02:06:00,77.8,75.9,29.95,ENE,76,0.0,1.0,94,0.00,,---,0.00,VWS V14.01,2013-10-05 07:06:00,
2013-10-05 02:11:00,77.8,75.9,29.95,ENE,76,0.0,3.0,94,0.00,,---,0.00,VWS V14.01,2013-10-05 07:11:00,
2013-10-05 02:16:00,77.7,75.8,29.95,ENE,76,0.0,3.0,94,0.00,,---,0.00,VWS V14.01,2013-10-05 07:16:00,
2013-10-05 02:21:00,77.7,75.8,29.95,ENE,76,1.0,3.0,94,0.00,,---,0.00,VWS V14.01,2013-10-05 07:21:00,
2013-10-05 02:26:00,77.7,75.8,29.94,ENE,76,0.0,0.0,94,0.00,,---,0.00,VWS V14.01,2013-10-05 07:26:00,
2013-10-05 02:31:00,77.7,75.8,29.94,ENE,76,0.0,0.0,94,0.00,,---,0.00,VWS V14.01,2013-10-05 07:31:00,
2013-10-05 02:36:00,77.7,75.8,29.94,ENE,76,0.0,0.0,94,0.00,,---,0.00,VWS V14.01,2013-10-05 07:36:00,
2013-10-05 02:41:00,77.7,75.8,29.94,ENE,76,0.0,3.0,94,0.00,,---,0.00,VWS V14.01,2013-10-05 07:41:00,
2013-10-05 02:46:00,77.7,75.8,29.94,ENE,58,0.0,3.0,94,0.00,,---,0.00,VWS V14.01,2013-10-05 07:46:00,
2013-10-05 02:51:00,77.7,75.8,29.94,NE,35,2.0,3.0,94,0.00,,---,0.00,VWS V14.01,2013-10-05 07:51:00,
2013-10-05 02:56:00,77.7,75.8,29.94,ENE,57,2.0,5.0,94,0.00,,---,0.00,VWS V14.01,2013-10-05 07:56:00,
2013-10-05 03:01:00,77.8,75.9,29.94,ENE,57,0.0,5.0,94,0.00,,---,0.00,VWS V14.01,2013-10-05 08:01:00,
2013-10-05 03:06:00,77.8,75.9,29.94,ENE,65,0.0,5.0,94,0.00,,---,0.00,VWS V14.01,2013-10-05 08:06:00,
2013-10-05 03:11:00,77.8,75.9,29.93,ENE,65,1.0,5.0,94,0.00,,---,0.00,VWS V14.01,2013-10-05 08:11:00,
2013-10-05 03:16:00,77.8,75.9,29.93,ENE,65,0.0,5.0,94,0.00,,---,0.00,VWS V14.01,2013-10-05 08:16:00,
2013-10-05 03:21:00,77.8,75.9,29.93,East,84,0.0,5.0,94,0.00,,---,0.00,VWS V14.01,2013-10-05 08:21:00,
2013-10-05 03:26:00,77.8,75.9,29.93,East,82,0.0,1.0,94,0.00,,---,0.00,VWS V14.01,2013-10-05 08:26:00,
2013-10-05 03:31:00,77.8,75.9,29.93,NE,45,0.0,4.0,94,0.00,,---,0.00,VWS V14.01,2013-10-05 08:31:00,
2013-10-05 03:36:00,77.8,75.9,29.93,NE,45,0.0,4.0,94,0.00,,---,0.00,VWS V14.01,2013-10-05 08:36:00,
2013-10-05 03:41:00,77.7,75.8,29.93,NE,45,0.0,4.0,94,0.00,,---,0.00,VWS V14.01,2013-10-05 08:41:00,
2013-10-05 03:46:00,77.7,75.8,29.93,NE,45,0.0,4.0,94,0.00,,---,0.00,VWS V14.01,2013-10-05 08:46:00,
2013-10-05 03:51:00,77.7,75.8,29.93,NE,45,0.0,4.0,94,0.00,,---,0.00,VWS V14.01,2013-10-05 08:51:00,
2013-10-05 03:56:00,77.6,75.7,29.93,NE,44,0.0,0.0,94,0.00,,---,0.00,VWS V14.01,2013-10-05 08:56:00,
2013-10-05 04:01:00,77.6,75.7,29.93,NE,42,0.0,1.0,94,0.00,,---,0.00,VWS V14.01,2013-10-05 09:01:00,
2013-10-05 04:06:00,77.6,75.7,29.93,NE,42,0.0,2.0,94,0.00,,---,0.00,VWS V14.01,2013-10-05 09:06:00,
2013-10-05 04:11:00,77.6,75.7,29.93,NE,43,0.0,2.0,94,0.00,,---,0.00,VWS V14.01,2013-10-05 09:11:00,
2013-10-05 04:16:00,77.6,75.7,29.93,NE,43,0.0,2.0,94,0.00,,---,0.00,VWS V14.01,2013-10-05 09:16:00,
2013-10-05 04:21:00,77.5,75.6,29.93,NE,43,0.0,2.0,94,0.00,,---,0.00,VWS V14.01,2013-10-05 09:21:00,
2013-10-05 04:26:00,77.5,75.6,29.93,NE,43,0.0,0.0,94,0.00,,---,0.00,VWS V14.01,2013-10-05 09:26:00,
2013-10-05 04:31:00,77.5,75.6,29.93,NE,43,0.0,0.0,94,0.00,,---,0.00,VWS V14.01,2013-10-05 09:31:00,
2013-10-05 04:36:00,77.5,76.0,29.93,NE,42,0.0,0.0,95,0.00,,---,0.00,VWS V14.01,2013-10-05 09:36:00,
2013-10-05 04:41:00,77.5,76.0,29.93,NE,43,1.0,3.0,95,0.00,,---,0.00,VWS V14.01,2013-10-05 09:41:00,
2013-10-05 04:46:00,77.4,75.9,29.93,NE,43,0.0,3.0,95,0.00,,---,0.00,VWS V14.01,2013-10-05 09:46:00,
2013-10-05 04:51:00,77.4,75.9,29.93,NE,43,0.0,3.0,95,0.00,,---,0.00,VWS V14.01,2013-10-05 09:51:00,
2013-10-05 04:56:00,77.3,75.8,29.93,NE,43,0.0,0.0,95,0.00,,---,0.00,VWS V14.01,2013-10-05 09:56:00,
2013-10-05 05:01:00,77.3,75.8,29.93,NE,43,0.0,1.0,95,0.00,,---,0.00,VWS V14.01,2013-10-05 10:01:00,
2013-10-05 05:06:00,77.3,75.8,29.93,NE,43,0.0,2.0,95,0.00,,---,0.00,VWS V14.01,2013-10-05 10:06:00,
2013-10-05 05:11:00,77.3,75.8,29.93,NE,43,0.0,2.0,95,0.00,,---,0.00,VWS V14.01,2013-10-05 10:11:00,
2013-10-05 05:16:00,77.3,75.8,29.94,NE,44,0.0,2.0,95,0.00,,---,0.00,VWS V14.01,2013-10-05 10:16:00,
2013-10-05 05:21:00,77.3,75.8,29.94,NE,43,0.0,2.0,95,0.00,,---,0.00,VWS V14.01,2013-10-05 10:21:00,
2013-10-05 05:26:00,77.3,75.8,29.94,NE,43,0.0,0.0,95,0.00,,---,0.00,VWS V14.01,2013-10-05 10:26:00,
2013-10-05 05:31:00,77.3,75.8,29.94,NE,43,0.0,0.0,95,0.00,,---,0.00,VWS V14.01,2013-10-05 10:31:00,
2013-10-05 05:36:00,77.3,75.8,29.94,NE,43,0.0,0.0,95,0.00,,---,0.00,VWS V14.01,2013-10-05 10:36:00,
2013-10-05 05:41:00,77.3,75.8,29.94,NE,44,0.0,0.0,95,0.00,,---,0.00,VWS V14.01,2013-10-05 10:41:00,
2013-10-05 05:46:00,77.3,75.8,29.94,NE,44,0.0,0.0,95,0.00,,---,0.00,VWS V14.01,2013-10-05 10:46:00,
2013-10-05 05:51:00,77.3,75.8,29.94,NE,44,0.0,0.0,95,0.00,,---,0.00,VWS V14.01,2013-10-05 10:51:00,
2013-10-05 05:56:00,77.3,75.8,29.94,NE,44,0.0,0.0,95,0.00,,---,0.00,VWS V14.01,2013-10-05 10:56:00,
2013-10-05 06:01:00,77.3,75.8,29.94,NE,44,0.0,1.0,95,0.00,,---,0.00,VWS V14.01,2013-10-05 11:01:00,
2013-10-05 06:06:00,77.3,75.8,29.94,NE,44,0.0,1.0,95,0.00,,---,0.00,VWS V14.01,2013-10-05 11:06:00,
2013-10-05 06:11:00,77.4,75.9,29.94,NE,44,0.0,1.0,95,0.00,,---,0.00,VWS V14.01,2013-10-05 11:11:00,
2013-10-05 06:16:00,77.4,75.9,29.95,NE,44,0.0,1.0,95,0.00,,---,0.00,VWS V14.01,2013-10-05 11:16:00,
2013-10-05 06:21:00,77.5,76.3,29.94,NE,44,0.0,1.0,96,0.00,,---,0.00,VWS V14.01,2013-10-05 11:21:00,
2013-10-05 06:26:00,77.5,76.0,29.94,NE,44,0.0,0.0,95,0.00,,---,0.00,VWS V14.01,2013-10-05 11:26:00,
2013-10-05 06:31:00,77.6,76.1,29.94,NE,44,0.0,1.0,95,0.00,,---,0.00,VWS V14.01,2013-10-05 11:31:00,
2013-10-05 06:36:00,77.6,76.1,29.94,NE,44,0.0,1.0,95,0.00,,---,0.00,VWS V14.01,2013-10-05 11:36:00,
2013-10-05 06:41:00,77.6,76.1,29.95,NE,44,0.0,3.0,95,0.00,,---,0.00,VWS V14.01,2013-10-05 11:41:00,
2013-10-05 06:46:00,77.7,76.2,29.95,NE,44,0.0,3.0,95,0.00,,---,0.00,VWS V14.01,2013-10-05 11:46:00,
2013-10-05 06:51:00,77.7,76.2,29.95,NE,44,2.0,3.0,95,0.00,,---,0.00,VWS V14.01,2013-10-05 11:51:00,
2013-10-05 06:56:00,77.8,76.3,29.95,NE,44,0.0,0.0,95,0.00,,---,0.00,VWS V14.01,2013-10-05 11:56:00,
2013-10-05 07:01:00,77.8,76.3,29.95,NE,45,2.0,3.0,95,0.00,,---,0.00,VWS V14.01,2013-10-05 12:01:00,
2013-10-05 07:06:00,77.8,76.3,29.95,ENE,65,2.0,4.0,95,0.00,,---,0.00,VWS V14.01,2013-10-05 12:06:00,
2013-10-05 07:11:00,77.9,76.4,29.95,ESE,102,0.0,7.0,95,0.00,,---,0.00,VWS V14.01,2013-10-05 12:11:00,
2013-10-05 07:16:00,77.9,76.4,29.95,East,98,0.0,7.0,95,0.00,,---,0.00,VWS V14.01,2013-10-05 12:16:00,
2013-10-05 07:21:00,78.0,76.5,29.95,East,97,0.0,7.0,95,0.00,,---,0.00,VWS V14.01,2013-10-05 12:21:00,
2013-10-05 07:26:00,78.0,76.5,29.95,East,98,2.0,2.0,95,0.00,,---,0.00,VWS V14.01,2013-10-05 12:26:00,
2013-10-05 07:31:00,78.1,76.6,29.96,East,98,0.0,4.0,95,0.00,,---,0.00,VWS V14.01,2013-10-05 12:31:00,
2013-10-05 07:36:00,78.2,76.7,29.96,East,98,0.0,4.0,95,0.00,,---,0.00,VWS V14.01,2013-10-05 12:36:00,
2013-10-05 07:41:00,78.2,76.7,29.96,ENE,69,0.0,5.0,95,0.00,,---,0.00,VWS V14.01,2013-10-05 12:41:00,
2013-10-05 07:46:00,78.3,76.4,29.96,ENE,69,2.0,5.0,94,0.00,,---,0.00,VWS V14.01,2013-10-05 12:46:00,
2013-10-05 07:51:00,78.5,76.6,29.96,East,96,4.0,7.0,94,0.00,,---,0.00,VWS V14.01,2013-10-05 12:51:00,
2013-10-05 07:56:00,78.5,76.3,29.97,ESE,120,6.0,6.0,93,0.00,,---,0.00,VWS V14.01,2013-10-05 12:56:00,
2013-10-05 08:01:00,78.6,75.8,29.97,ESE,106,4.0,11.0,91,0.00,,---,0.00,VWS V14.01,2013-10-05 13:01:00,
2013-10-05 08:06:00,78.8,75.3,29.97,East,83,3.0,11.0,89,0.00,,---,0.00,VWS V14.01,2013-10-05 13:06:00,
2013-10-05 08:11:00,78.9,75.4,29.97,East,86,1.0,11.0,89,0.00,,---,0.00,VWS V14.01,2013-10-05 13:11:00,
2013-10-05 08:16:00,78.9,75.1,29.97,East,101,5.0,11.0,88,0.00,,---,0.00,VWS V14.01,2013-10-05 13:16:00,
2013-10-05 08:21:00,79.0,75.2,29.97,East,88,0.0,11.0,88,0.00,,---,0.00,VWS V14.01,2013-10-05 13:21:00,
2013-10-05 08:26:00,79.0,74.8,29.97,East,100,4.0,7.0,87,0.00,,---,0.00,VWS V14.01,2013-10-05 13:26:00,
2013-10-05 08:31:00,79.0,75.2,29.97,ESE,105,1.0,8.0,88,0.00,,---,0.00,VWS V14.01,2013-10-05 13:31:00,
2013-10-05 08:36:00,79.1,75.2,29.97,ESE,107,2.0,8.0,88,0.00,,---,0.00,VWS V14.01,2013-10-05 13:36:00,
2013-10-05 08:41:00,79.3,75.4,29.97,East,100,4.0,8.0,88,0.00,,---,0.00,VWS V14.01,2013-10-05 13:41:00,
2013-10-05 08:46:00,79.6,75.7,29.97,East,101,4.0,8.0,88,0.00,,---,0.00,VWS V14.01,2013-10-05 13:46:00,
2013-10-05 08:51:00,80.2,76.3,29.97,East,90,0.0,8.0,88,0.00,,---,0.00,VWS V14.01,2013-10-05 13:51:00,
2013-10-05 08:56:00,80.8,76.6,29.97,ESE,107,7.0,7.0,87,0.00,,---,0.00,VWS V14.01,2013-10-05 13:56:00,
2013-10-05 09:01:00,81.1,76.9,29.97,ESE,112,6.0,11.0,87,0.00,,---,0.00,VWS V14.01,2013-10-05 14:01:00,
2013-10-05 09:06:00,81.4,76.8,29.97,SE,136,4.0,11.0,86,0.00,,---,0.00,VWS V14.01,2013-10-05 14:06:00,
2013-10-05 09:11:00,81.7,76.4,29.98,East,95,11.0,15.0,84,0.00,,---,0.00,VWS V14.01,2013-10-05 14:11:00,
2013-10-05 09:16:00,81.7,76.4,29.98,ESE,104,4.0,15.0,84,0.00,,---,0.00,VWS V14.01,2013-10-05 14:16:00,
2013-10-05 09:21:00,81.6,76.3,29.98,ESE,122,5.0,15.0,84,0.00,,---,0.00,VWS V14.01,2013-10-05 14:21:00,
2013-10-05 09:26:00,82.0,76.3,29.98,East,83,10.0,13.0,83,0.00,,---,0.00,VWS V14.01,2013-10-05 14:26:00,
2013-10-05 09:31:00,82.0,76.0,29.98,ESE,119,6.0,14.0,82,0.00,,---,0.00,VWS V14.01,2013-10-05 14:31:00,
2013-10-05 09:36:00,82.0,76.7,29.98,East,88,4.0,14.0,84,0.00,,---,0.00,VWS V14.01,2013-10-05 14:36:00,
2013-10-05 09:41:00,82.3,77.0,29.98,ENE,73,5.0,14.0,84,0.00,,---,0.00,VWS V14.01,2013-10-05 14:41:00,
2013-10-05 09:46:00,82.6,76.9,29.98,ESE,123,1.0,14.0,83,0.00,,---,0.00,VWS V14.01,2013-10-05 14:46:00,
2013-10-05 09:51:00,83.0,76.6,29.98,SE,128,4.0,17.0,81,0.00,,---,0.00,VWS V14.01,2013-10-05 14:51:00,
2013-10-05 09:56:00,83.2,76.8,29.98,East,96,5.0,8.0,81,0.00,,---,0.00,VWS V14.01,2013-10-05 14:56:00,
2013-10-05 10:01:00,83.2,76.4,29.98,East,80,4.0,13.0,80,0.00,,---,0.00,VWS V14.01,2013-10-05 15:01:00,
2013-10-05 10:06:00,83.1,76.3,29.98,East,81,7.0,15.0,80,0.00,,---,0.00,VWS V14.01,2013-10-05 15:06:00,
2013-10-05 10:11:00,83.4,75.8,29.97,ENE,78,4.0,15.0,78,0.00,,---,0.00,VWS V14.01,2013-10-05 15:11:00,
2013-10-05 10:16:00,83.4,76.2,29.98,SE,143,5.0,15.0,79,0.00,,---,0.00,VWS V14.01,2013-10-05 15:16:00,
2013-10-05 10:21:00,83.7,76.1,29.98,ESE,120,8.0,15.0,78,0.00,,---,0.00,VWS V14.01,2013-10-05 15:21:00,
2013-10-05 10:26:00,83.7,75.7,29.97,SE,134,6.0,11.0,77,0.00,,---,0.00,VWS V14.01,2013-10-05 15:26:00,
2013-10-05 10:31:00,83.9,75.9,29.97,East,81,10.0,16.0,77,0.00,,---,0.00,VWS V14.01,2013-10-05 15:31:00,
2013-10-05 10:36:00,83.9,75.5,29.97,ESE,106,16.0,18.0,76,0.00,,---,0.00,VWS V14.01,2013-10-05 15:36:00,
2013-10-05 10:41:00,84.1,75.7,29.97,East,92,4.0,18.0,76,0.00,,---,0.00,VWS V14.01,2013-10-05 15:41:00,
2013-10-05 10:46:00,84.5,75.7,29.97,East,98,13.0,18.0,75,0.00,,---,0.00,VWS V14.01,2013-10-05 15:46:00,
2013-10-05 10:51:00,84.5,75.7,29.97,SSE,147,4.0,18.0,75,0.00,,---,0.00,VWS V14.01,2013-10-05 15:51:00,
2013-10-05 10:56:00,84.7,76.3,29.97,East,98,0.0,5.0,76,0.00,,---,0.00,VWS V14.01,2013-10-05 15:56:00,
2013-10-05 11:01:00,85.1,76.3,29.97,East,84,12.0,13.0,75,0.00,,---,0.00,VWS V14.01,2013-10-05 16:01:00,
2013-10-05 11:06:00,84.5,75.7,29.97,SSE,148,9.0,15.0,75,0.00,,---,0.00,VWS V14.01,2013-10-05 16:06:00,
2013-10-05 11:11:00,84.2,75.8,29.97,ESE,103,13.0,18.0,76,0.00,,---,0.00,VWS V14.01,2013-10-05 16:11:00,
2013-10-05 11:16:00,84.1,76.1,29.97,ESE,119,9.0,18.0,77,0.00,,---,0.00,VWS V14.01,2013-10-05 16:16:00,
2013-10-05 11:21:00,84.4,76.0,29.97,ESE,112,2.0,18.0,76,0.00,,---,0.00,VWS V14.01,2013-10-05 16:21:00,
2013-10-05 11:26:00,84.8,76.0,29.97,ESE,117,8.0,8.0,75,0.00,,---,0.00,VWS V14.01,2013-10-05 16:26:00,
2013-10-05 11:31:00,85.0,75.8,29.97,South,186,9.0,14.0,74,0.00,,---,0.00,VWS V14.01,2013-10-05 16:31:00,
2013-10-05 11:36:00,85.0,75.4,29.97,SE,124,4.0,14.0,73,0.00,,---,0.00,VWS V14.01,2013-10-05 16:36:00,
2013-10-05 11:41:00,84.8,75.6,29.97,SSE,148,4.0,15.0,74,0.00,,---,0.00,VWS V14.01,2013-10-05 16:41:00,
2013-10-05 11:46:00,84.8,75.2,29.97,SSE,163,5.0,15.0,73,0.00,,---,0.00,VWS V14.01,2013-10-05 16:46:00,
2013-10-05 11:51:00,84.9,74.0,29.97,East,91,2.0,15.0,70,0.00,,---,0.00,VWS V14.01,2013-10-05 16:51:00,
2013-10-05 11:56:00,84.8,73.5,29.97,East,97,7.0,13.0,69,0.00,,---,0.00,VWS V14.01,2013-10-05 16:56:00,
2013-10-05 12:01:00,84.7,73.0,29.97,East,94,11.0,18.0,68,0.00,,---,0.00,VWS V14.01,2013-10-05 17:01:00,
2013-10-05 12:06:00,84.8,73.9,29.97,ESE,106,9.0,18.0,70,0.00,,---,0.00,VWS V14.01,2013-10-05 17:06:00,
2013-10-05 12:11:00,85.3,74.8,29.97,ESE,112,6.0,18.0,71,0.00,,---,0.00,VWS V14.01,2013-10-05 17:11:00,
2013-10-05 12:16:00,85.8,74.5,29.97,ESE,119,4.0,18.0,69,0.00,,---,0.00,VWS V14.01,2013-10-05 17:16:00,
2013-10-05 12:21:00,85.6,72.9,29.97,ESE,114,11.0,18.0,66,0.00,,---,0.00,VWS V14.01,2013-10-05 17:21:00,
2013-10-05 12:26:00,85.9,75.0,29.96,ESE,116,11.0,11.0,70,0.00,,---,0.00,VWS V14.01,2013-10-05 17:26:00,
2013-10-05 12:31:00,86.6,73.4,29.96,South,171,7.0,17.0,65,0.00,,---,0.00,VWS V14.01,2013-10-05 17:31:00,
2013-10-05 12:36:00,85.9,74.1,29.96,SE,140,8.0,17.0,68,0.00,,---,0.00,VWS V14.01,2013-10-05 17:36:00,
2013-10-05 12:41:00,85.4,73.6,29.96,East,101,7.0,17.0,68,0.00,,---,0.00,VWS V14.01,2013-10-05 17:41:00,
2013-10-05 12:46:00,85.2,74.7,29.95,ESE,115,7.0,17.0,71,0.00,,---,0.00,VWS V14.01,2013-10-05 17:46:00,
2013-10-05 12:51:00,85.4,74.5,29.95,ENE,71,7.0,17.0,70,0.00,,---,0.00,VWS V14.01,2013-10-05 17:51:00,
2013-10-05 12:56:00,85.5,75.0,29.95,ESE,104,4.0,6.0,71,0.00,,---,0.00,VWS V14.01,2013-10-05 17:56:00,
2013-10-05 13:01:00,85.8,75.7,29.94,ESE,111,6.0,8.0,72,0.00,,---,0.00,VWS V14.01,2013-10-05 18:01:00,
2013-10-05 13:06:00,86.1,76.4,29.94,ESE,113,7.0,13.0,73,0.00,,---,0.00,VWS V14.01,2013-10-05 18:06:00,
2013-10-05 13:11:00,86.5,76.4,29.94,ESE,103,6.0,13.0,72,0.00,,---,0.00,VWS V14.01,2013-10-05 18:11:00,
2013-10-05 13:16:00,86.3,76.2,29.93,East,94,5.0,13.0,72,0.00,,---,0.00,VWS V14.01,2013-10-05 18:16:00,
2013-10-05 13:21:00,85.7,75.6,29.93,ESE,115,5.0,13.0,72,0.00,,---,0.00,VWS V14.01,2013-10-05 18:21:00,
2013-10-05 13:26:00,85.6,75.5,29.93,East,88,10.0,12.0,72,0.00,,---,0.00,VWS V14.01,2013-10-05 18:26:00,
2013-10-05 13:31:00,85.8,75.7,29.93,ESE,108,9.0,13.0,72,0.00,,---,0.00,VWS V14.01,2013-10-05 18:31:00,
2013-10-05 13:36:00,85.9,75.4,29.93,ESE,120,5.0,13.0,71,0.00,,---,0.00,VWS V14.01,2013-10-05 18:36:00,
2013-10-05 13:41:00,85.7,74.8,29.92,SE,125,5.0,13.0,70,0.00,,---,0.00,VWS V14.01,2013-10-05 18:41:00,
2013-10-05 13:46:00,86.2,75.3,29.92,ESE,106,6.0,15.0,70,0.00,,---,0.00,VWS V14.01,2013-10-05 18:46:00,
2013-10-05 13:51:00,86.6,75.2,29.92,SE,130,6.0,15.0,69,0.00,,---,0.00,VWS V14.01,2013-10-05 18:51:00,
2013-10-05 13:56:00,86.7,75.3,29.92,East,98,5.0,7.0,69,0.00,,---,0.00,VWS V14.01,2013-10-05 18:56:00,
2013-10-05 14:01:00,86.6,75.2,29.91,NE,47,3.0,13.0,69,0.00,,---,0.00,VWS V14.01,2013-10-05 19:01:00,
2013-10-05 14:06:00,86.6,75.2,29.91,ESE,111,12.0,13.0,69,0.00,,---,0.00,VWS V14.01,2013-10-05 19:06:00,
2013-10-05 14:11:00,86.2,74.8,29.91,ESE,110,5.0,13.0,69,0.00,,---,0.00,VWS V14.01,2013-10-05 19:11:00,
2013-10-05 14:16:00,86.2,75.3,29.91,ESE,106,11.0,15.0,70,0.00,,---,0.00,VWS V14.01,2013-10-05 19:16:00,
2013-10-05 14:21:00,86.5,74.7,29.91,East,93,2.0,15.0,68,0.00,,---,0.00,VWS V14.01,2013-10-05 19:21:00,
2013-10-05 14:26:00,86.8,74.5,29.90,East,101,6.0,6.0,67,0.00,,---,0.00,VWS V14.01,2013-10-05 19:26:00,
2013-10-05 14:31:00,86.7,74.9,29.90,ESE,113,9.0,12.0,68,0.00,,---,0.00,VWS V14.01,2013-10-05 19:31:00,
2013-10-05 14:36:00,86.9,74.6,29.90,East,82,10.0,16.0,67,0.00,,---,0.00,VWS V14.01,2013-10-05 19:36:00,
2013-10-05 14:41:00,86.6,74.8,29.90,NE,49,6.0,19.0,68,0.00,,---,0.00,VWS V14.01,2013-10-05 19:41:00,
2013-10-05 14:46:00,87.0,75.6,29.90,East,86,6.0,19.0,69,0.00,,---,0.00,VWS V14.01,2013-10-05 19:46:00,
2013-10-05 14:51:00,86.6,74.8,29.90,NE,35,4.0,19.0,68,0.00,,---,0.00,VWS V14.01,2013-10-05 19:51:00,
2013-10-05 14:56:00,86.0,75.1,29.90,ESE,107,8.0,8.0,70,0.00,,---,0.00,VWS V14.01,2013-10-05 19:56:00,
2013-10-05 15:01:00,85.6,74.7,29.90,ESE,113,11.0,15.0,70,0.00,,---,0.00,VWS V14.01,2013-10-05 20:01:00,
2013-10-05 15:06:00,85.4,74.9,29.90,South,172,7.0,15.0,71,0.00,,---,0.00,VWS V14.01,2013-10-05 20:06:00,
2013-10-05 15:11:00,84.5,74.9,29.90,SE,142,6.0,15.0,73,0.00,,---,0.00,VWS V14.01,2013-10-05 20:11:00,
2013-10-05 15:16:00,83.1,75.2,29.90,SSE,165,9.0,15.0,77,0.00,,---,0.00,VWS V14.01,2013-10-05 20:16:00,
2013-10-05 15:21:00,81.9,75.1,29.90,SE,145,5.0,15.0,80,0.00,,---,0.00,VWS V14.01,2013-10-05 20:21:00,
2013-10-05 15:26:00,81.1,75.8,29.90,East,100,8.0,8.0,84,0.02,,---,0.02,VWS V14.01,2013-10-05 20:26:00,
2013-10-05 15:30:00,79.6,75.4,29.90,ENE,71,3.0,11.0,87,0.03,,---,0.03,VWS V14.01,2013-10-05 20:30:00,
2013-10-05 15:35:00,79.1,75.6,29.90,East,90,0.0,11.0,89,0.04,,---,0.04,VWS V14.01,2013-10-05 20:35:00,
2013-10-05 15:40:00,79.1,75.9,29.91,South,190,0.0,11.0,90,0.04,,---,0.04,VWS V14.01,2013-10-05 20:40:00,
2013-10-05 15:45:00,79.5,76.7,29.90,ESE,106,6.0,11.0,91,0.04,,---,0.04,VWS V14.01,2013-10-05 20:45:00,
2013-10-05 15:50:00,79.9,76.7,29.90,East,94,2.0,11.0,90,0.04,,---,0.04,VWS V14.01,2013-10-05 20:50:00,
2013-10-05 15:55:00,80.2,76.7,29.91,ESE,105,4.0,4.0,89,0.04,,---,0.04,VWS V14.01,2013-10-05 20:55:00,
2013-10-05 16:00:00,80.5,77.0,29.91,ENE,72,3.0,7.0,89,0.04,,---,0.04,VWS V14.01,2013-10-05 21:00:00,
2013-10-05 16:05:00,80.5,77.0,29.91,East,101,8.0,12.0,89,0.04,,---,0.04,VWS V14.01,2013-10-05 21:05:00,
2013-10-05 16:10:00,80.0,76.8,29.91,SSE,150,2.0,12.0,90,0.05,,---,0.05,VWS V14.01,2013-10-05 21:10:00,
2013-10-05 16:15:00,79.6,76.4,29.91,East,82,0.0,12.0,90,0.05,,---,0.05,VWS V14.01,2013-10-05 21:15:00,
2013-10-05 16:20:00,79.5,76.7,29.91,ESE,115,0.0,12.0,91,0.05,,---,0.05,VWS V14.01,2013-10-05 21:20:00,
2013-10-05 16:25:00,79.5,77.0,29.91,East,95,0.0,12.0,92,0.05,,---,0.05,VWS V14.01,2013-10-05 21:25:00,
2013-10-05 16:30:00,79.4,76.9,29.91,ESE,102,1.0,8.0,92,0.03,,---,0.05,VWS V14.01,2013-10-05 21:30:00,
2013-10-05 16:35:00,79.6,77.1,29.91,ESE,115,0.0,8.0,92,0.03,,---,0.05,VWS V14.01,2013-10-05 21:35:00,
2013-10-05 16:40:00,79.8,77.3,29.91,ESE,113,0.0,8.0,92,0.03,,---,0.05,VWS V14.01,2013-10-05 21:40:00,
2013-10-05 16:45:00,79.6,76.8,29.91,ESE,107,11.0,14.0,91,0.11,,---,0.13,VWS V14.01,2013-10-05 21:45:00,
2013-10-05 16:50:00,78.4,75.6,29.92,East,99,7.0,14.0,91,0.23,,---,0.25,VWS V14.01,2013-10-05 21:50:00,
2013-10-05 16:55:00,77.2,74.7,29.91,South,169,2.0,14.0,92,0.25,,---,0.27,VWS V14.01,2013-10-05 21:55:00,
2013-10-05 17:00:00,76.7,74.5,29.91,ESE,103,1.0,8.0,93,0.27,,---,0.31,VWS V14.01,2013-10-05 22:00:00,
2013-10-05 17:05:00,76.8,74.9,29.91,ENE,63,0.0,8.0,94,0.28,,---,0.32,VWS V14.01,2013-10-05 22:05:00,
2013-10-05 17:10:00,77.0,75.1,29.91,ENE,78,0.0,8.0,94,0.29,,---,0.33,VWS V14.01,2013-10-05 22:10:00,
2013-10-05 17:15:00,77.0,75.5,29.90,ENE,76,0.0,8.0,95,0.29,,---,0.33,VWS V14.01,2013-10-05 22:15:00,
2013-10-05 17:20:00,76.8,74.9,29.90,ESE,118,2.0,8.0,94,0.29,,---,0.33,VWS V14.01,2013-10-05 22:20:00,
2013-10-05 17:25:00,76.7,74.8,29.90,East,101,5.0,5.0,94,0.28,,---,0.33,VWS V14.01,2013-10-05 22:25:00,
2013-10-05 17:30:00,76.8,75.3,29.90,ESE,109,4.0,8.0,95,0.28,,---,0.33,VWS V14.01,2013-10-05 22:30:00,
2013-10-05 17:35:00,77.1,75.6,29.90,NE,50,2.0,8.0,95,0.28,,---,0.33,VWS V14.01,2013-10-05 22:35:00,
2013-10-05 17:40:00,77.3,75.4,29.90,East,83,3.0,8.0,94,0.28,,---,0.33,VWS V14.01,2013-10-05 22:40:00,
2013-10-05 17:45:00,77.6,75.7,29.90,East,79,4.0,8.0,94,0.28,,---,0.33,VWS V14.01,2013-10-05 22:45:00,
2013-10-05 17:50:00,78.0,76.1,29.89,ESE,111,7.0,8.0,94,0.28,,---,0.33,VWS V14.01,2013-10-05 22:50:00,
2013-10-05 17:55:00,78.4,76.2,29.89,ENE,75,2.0,8.0,93,0.28,,---,0.33,VWS V14.01,2013-10-05 22:55:00,
2013-10-05 18:00:00,78.7,76.5,29.89,East,101,4.0,7.0,93,0.06,,---,0.33,VWS V14.01,2013-10-05 23:00:00,
2013-10-05 18:05:00,79.0,76.5,29.89,East,94,2.0,7.0,92,0.06,,---,0.33,VWS V14.01,2013-10-05 23:05:00,
2013-10-05 18:10:00,79.3,76.8,29.89,East,79,1.0,7.0,92,0.06,,---,0.33,VWS V14.01,2013-10-05 23:10:00,
2013-10-05 18:15:00,79.4,76.9,29.89,ENE,58,0.0,7.0,92,0.06,,---,0.33,VWS V14.01,2013-10-05 23:15:00,
2013-10-05 18:20:00,79.5,77.0,29.89,ENE,59,0.0,7.0,92,0.06,,---,0.33,VWS V14.01,2013-10-05 23:20:00,
2013-10-05 18:25:00,79.4,76.6,29.89,East,97,2.0,7.0,91,0.06,,---,0.33,VWS V14.01,2013-10-05 23:25:00,
2013-10-05 18:30:00,79.4,76.6,29.89,East,96,1.0,5.0,91,0.00,,---,0.33,VWS V14.01,2013-10-05 23:30:00,
2013-10-05 18:35:00,79.4,76.6,29.90,East,96,0.0,5.0,91,0.00,,---,0.33,VWS V14.01,2013-10-05 23:35:00,
2013-10-05 18:40:00,79.4,76.6,29.90,East,96,0.0,6.0,91,0.00,,---,0.33,VWS V14.01,2013-10-05 23:40:00,
2013-10-05 18:45:00,79.3,76.4,29.89,East,96,0.0,6.0,91,0.00,,---,0.33,VWS V14.01,2013-10-05 23:45:00,
2013-10-05 18:50:00,79.1,76.2,29.90,East,96,0.0,6.0,91,0.00,,---,0.33,VWS V14.01,2013-10-05 23:50:00,
2013-10-05 18:55:00,79.0,76.2,29.90,East,97,0.0,6.0,91,0.00,,---,0.33,VWS V14.01,2013-10-05 23:55:00,
2013-10-05 19:00:00,78.9,76.1,29.89,East,96,0.0,7.0,91,0.00,,---,0.33,VWS V14.01,2013-10-06 00:00:00,
2013-10-05 19:05:00,78.9,75.7,29.89,ESE,112,2.0,7.0,90,0.00,,---,0.33,VWS V14.01,2013-10-06 00:05:00,
2013-10-05 19:10:00,78.8,75.6,29.89,East,101,1.0,7.0,90,0.00,,---,0.33,VWS V14.01,2013-10-06 00:10:00,
2013-10-05 19:15:00,78.7,75.2,29.89,East,100,0.0,8.0,89,0.00,,---,0.33,VWS V14.01,2013-10-06 00:15:00,
2013-10-05 19:20:00,78.8,75.3,29.89,East,97,4.0,8.0,89,0.00,,---,0.33,VWS V14.01,2013-10-06 00:20:00,
2013-10-05 19:25:00,78.8,74.9,29.90,East,88,5.0,8.0,88,0.00,,---,0.33,VWS V14.01,2013-10-06 00:25:00,
2013-10-05 19:30:00,78.7,74.8,29.90,East,96,1.0,7.0,88,0.00,,---,0.33,VWS V14.01,2013-10-06 00:30:00,
2013-10-05 19:35:00,78.7,74.8,29.90,East,98,0.0,7.0,88,0.00,,---,0.33,VWS V14.01,2013-10-06 00:35:00,
2013-10-05 19:40:00,78.6,74.8,29.90,East,88,5.0,7.0,88,0.00,,---,0.33,VWS V14.01,2013-10-06 00:40:00,
2013-10-05 19:45:00,78.5,75.0,29.90,East,92,0.0,7.0,89,0.00,,---,0.33,VWS V14.01,2013-10-06 00:45:00,
2013-10-05 19:50:00,78.5,75.0,29.90,East,92,2.0,7.0,89,0.00,,---,0.33,VWS V14.01,2013-10-06 00:50:00,
2013-10-05 19:55:00,78.5,75.0,29.90,East,93,0.0,7.0,89,0.00,,---,0.33,VWS V14.01,2013-10-06 00:55:00,
2013-10-05 20:00:00,78.5,75.0,29.90,East,90,4.0,5.0,89,0.00,,---,0.33,VWS V14.01,2013-10-06 01:00:00,
2013-10-05 20:05:00,78.4,74.9,29.90,East,91,0.0,6.0,89,0.00,,---,0.33,VWS V14.01,2013-10-06 01:05:00,
2013-10-05 20:10:00,78.4,74.9,29.90,East,91,0.0,6.0,89,0.00,,---,0.33,VWS V14.01,2013-10-06 01:10:00,
2013-10-05 20:15:00,78.4,74.9,29.90,East,92,0.0,6.0,89,0.00,,---,0.33,VWS V14.01,2013-10-06 01:15:00,
2013-10-05 20:20:00,78.4,74.9,29.90,East,91,0.0,6.0,89,0.00,,---,0.33,VWS V14.01,2013-10-06 01:20:00,
2013-10-05 20:25:00,78.4,74.9,29.90,East,91,0.0,6.0,89,0.00,,---,0.33,VWS V14.01,2013-10-06 01:25:00,
2013-10-05 20:30:00,78.3,74.8,29.90,East,91,0.0,4.0,89,0.00,,---,0.33,VWS V14.01,2013-10-06 01:30:00,
2013-10-05 20:35:00,78.3,74.8,29.90,East,92,0.0,4.0,89,0.00,,---,0.33,VWS V14.01,2013-10-06 01:35:00,
2013-10-05 20:40:00,78.3,74.8,29.90,East,92,4.0,6.0,89,0.00,,---,0.33,VWS V14.01,2013-10-06 01:40:00,
2013-10-05 20:45:00,78.2,74.7,29.90,East,92,0.0,6.0,89,0.00,,---,0.33,VWS V14.01,2013-10-06 01:45:00,
2013-10-05 20:50:00,78.3,74.8,29.90,East,93,2.0,6.0,89,0.00,,---,0.33,VWS V14.01,2013-10-06 01:50:00,
2013-10-05 20:55:00,78.2,74.4,29.91,East,88,0.0,7.0,88,0.00,,---,0.33,VWS V14.01,2013-10-06 01:55:00,
2013-10-05 21:00:00,78.2,74.4,29.91,SE,138,0.0,5.0,88,0.00,,---,0.33,VWS V14.01,2013-10-06 02:00:00,
2013-10-05 21:05:00,78.2,74.4,29.91,SE,138,0.0,6.0,88,0.00,,---,0.33,VWS V14.01,2013-10-06 02:05:00,
2013-10-05 21:10:00,78.3,74.5,29.92,SE,137,0.0,6.0,88,0.00,,---,0.33,VWS V14.01,2013-10-06 02:10:00,
2013-10-05 21:15:00,78.2,74.4,29.92,SE,137,1.0,6.0,88,0.00,,---,0.33,VWS V14.01,2013-10-06 02:15:00,
2013-10-05 21:20:00,78.2,74.0,29.92,ESE,105,2.0,6.0,87,0.00,,---,0.33,VWS V14.01,2013-10-06 02:20:00,
2013-10-05 21:25:00,78.2,74.0,29.92,ESE,105,0.0,6.0,87,0.00,,---,0.33,VWS V14.01,2013-10-06 02:25:00,
2013-10-05 21:30:00,78.3,74.1,29.92,ESE,105,0.0,5.0,87,0.00,,---,0.33,VWS V14.01,2013-10-06 02:30:00,
2013-10-05 21:35:00,78.3,74.1,29.92,ESE,103,1.0,5.0,87,0.00,,---,0.33,VWS V14.01,2013-10-06 02:35:00,
2013-10-05 21:40:00,78.3,74.1,29.92,ESE,103,0.0,5.0,87,0.00,,---,0.33,VWS V14.01,2013-10-06 02:40:00,
2013-10-05 21:45:00,78.4,74.6,29.92,ESE,103,0.0,5.0,88,0.00,,---,0.33,VWS V14.01,2013-10-06 02:45:00,
2013-10-05 21:50:00,78.3,74.5,29.92,ESE,103,0.0,5.0,88,0.00,,---,0.33,VWS V14.01,2013-10-06 02:50:00,
2013-10-05 21:55:00,78.2,74.4,29.92,ESE,103,0.0,5.0,88,0.00,,---,0.33,VWS V14.01,2013-10-06 02:55:00,
2013-10-05 22:00:00,78.1,74.3,29.92,ESE,103,0.0,0.0,88,0.00,,---,0.33,VWS V14.01,2013-10-06 03:00:00,
2013-10-05 22:05:00,77.9,74.4,29.92,ESE,103,0.0,0.0,89,0.00,,---,0.33,VWS V14.01,2013-10-06 03:05:00,
2013-10-05 22:10:00,77.8,74.3,29.92,ESE,103,0.0,4.0,89,0.00,,---,0.33,VWS V14.01,2013-10-06 03:10:00,
2013-10-05 22:15:00,77.8,74.3,29.92,ESE,103,0.0,4.0,89,0.00,,---,0.33,VWS V14.01,2013-10-06 03:15:00,
2013-10-05 22:20:00,77.7,74.5,29.91,ESE,103,0.0,4.0,90,0.00,,---,0.33,VWS V14.01,2013-10-06 03:20:00,
2013-10-05 22:25:00,77.6,74.4,29.91,ESE,103,0.0,4.0,90,0.00,,---,0.33,VWS V14.01,2013-10-06 03:25:00,
2013-10-05 22:30:00,77.6,74.4,29.91,ESE,103,0.0,0.0,90,0.00,,---,0.33,VWS V14.01,2013-10-06 03:30:00,
2013-10-05 22:35:00,77.6,74.4,29.91,ESE,103,0.0,2.0,90,0.00,,---,0.33,VWS V14.01,2013-10-06 03:35:00,
2013-10-05 22:40:00,77.5,74.3,29.91,ESE,103,0.0,2.0,90,0.00,,---,0.33,VWS V14.01,2013-10-06 03:40:00,
2013-10-05 22:45:00,77.5,74.3,29.91,ESE,103,0.0,2.0,90,0.00,,---,0.33,VWS V14.01,2013-10-06 03:45:00,
2013-10-05 22:50:00,77.5,74.3,29.91,ESE,103,0.0,2.0,90,0.00,,---,0.33,VWS V14.01,2013-10-06 03:50:00,
2013-10-05 22:55:00,77.5,74.3,29.90,ESE,103,0.0,2.0,90,0.00,,---,0.33,VWS V14.01,2013-10-06 03:55:00,
2013-10-05 23:00:00,77.5,74.3,29.90,ESE,103,0.0,0.0,90,0.00,,---,0.33,VWS V14.01,2013-10-06 04:00:00,
2013-10-05 23:01:00,77.5,74.3,29.90,ESE,103,0.0,0.0,90,0.00,,---,0.33,VWS V14.01,2013-10-06 04:01:00,
2013-10-05 23:06:00,77.5,74.3,29.90,ESE,103,0.0,0.0,90,0.00,,---,0.33,VWS V14.01,2013-10-06 04:06:00,
2013-10-05 23:11:00,77.5,74.3,29.90,ESE,103,0.0,0.0,90,0.00,,---,0.33,VWS V14.01,2013-10-06 04:11:00,
2013-10-05 23:16:00,77.5,74.3,29.90,ESE,103,0.0,0.0,90,0.00,,---,0.33,VWS V14.01,2013-10-06 04:16:00,
2013-10-05 23:21:00,77.4,74.2,29.90,ESE,103,0.0,0.0,90,0.00,,---,0.33,VWS V14.01,2013-10-06 04:21:00,
2013-10-05 23:26:00,77.4,74.2,29.90,ESE,103,0.0,0.0,90,0.00,,---,0.33,VWS V14.01,2013-10-06 04:26:00,
2013-10-05 23:31:00,77.4,74.6,29.89,ESE,103,0.0,0.0,91,0.00,,---,0.33,VWS V14.01,2013-10-06 04:31:00,
2013-10-05 23:36:00,77.4,74.6,29.89,ESE,103,0.0,0.0,91,0.00,,---,0.33,VWS V14.01,2013-10-06 04:36:00,
2013-10-05 23:41:00,77.4,74.6,29.88,ESE,103,0.0,0.0,91,0.00,,---,0.33,VWS V14.01,2013-10-06 04:41:00,
2013-10-05 23:46:00,77.3,74.5,29.88,ESE,103,0.0,0.0,91,0.00,,---,0.33,VWS V14.01,2013-10-06 04:46:00,
2013-10-05 23:51:00,77.3,74.5,29.88,ESE,103,0.0,0.0,91,0.00,,---,0.33,VWS V14.01,2013-10-06 04:51:00,
2013-10-05 23:56:00,77.2,74.4,29.88,ESE,103,0.0,0.0,91,0.00,,---,0.00,VWS V14.01,2013-10-06 04:56:00,